LHX4UT EDDF-EGLL

Flight info

Callsign LHX4UT
Flight time 1h 11m
Altitude 36000
Route OBOKA3W/25C OBOKA Z29 TORNU DCT ABNED L980 LOGAN LOGAN2H
Aircraft A319/M-SDE3FGHIRWY/LB1

Departure

Time 2026-05-07 07:58
Airport Frankfurt Main Airport (EDDF)

Arrival

Time 2026-05-07 09:09
Airport London Heathrow Airport (EGLL)
Time Latitude Longitude Altitude Speed Heading
2026-05-07 07:23 50.04613 8.57197 357 ft 0 kts
2026-05-07 07:50 50.04611 8.57197 357 ft 2 kts
2026-05-07 07:50 50.04590 8.57195 363 ft 3 kts
2026-05-07 07:50 50.04572 8.57194 357 ft 3 kts
2026-05-07 07:50 50.04552 8.57185 363 ft 3 kts 33°
2026-05-07 07:51 50.04536 8.57164 365 ft 3 kts 54°
2026-05-07 07:51 50.04525 8.57135 359 ft 3 kts 67°
2026-05-07 07:51 50.04521 8.57119 359 ft 1 kts 70°
2026-05-07 07:54 50.04522 8.57124 357 ft 2 kts 70°
2026-05-07 07:54 50.04532 8.57165 357 ft 6 kts 69°
2026-05-07 07:55 50.04553 8.57252 359 ft 11 kts 69°
2026-05-07 07:55 50.04581 8.57370 357 ft 12 kts 70°
2026-05-07 07:55 50.04591 8.57489 358 ft 10 kts 123°
2026-05-07 07:55 50.04533 8.57533 362 ft 10 kts 154°
2026-05-07 07:56 50.04470 8.57587 366 ft 11 kts 151°
2026-05-07 07:56 50.04399 8.57646 365 ft 13 kts 152°
2026-05-07 07:56 50.04308 8.57702 362 ft 9 kts 160°
2026-05-07 07:56 50.04266 8.57664 362 ft 8 kts 249°
2026-05-07 07:57 50.04265 8.57659 362 ft 0 kts 249°
2026-05-07 07:57 50.04265 8.57657 362 ft 1 kts 249°
2026-05-07 07:57 50.04214 8.57445 365 ft 57 kts 250°
2026-05-07 07:57 50.03987 8.56496 357 ft 128 kts 249°
2026-05-07 07:58 50.03614 8.54946 507 ft 166 kts 252°
2026-05-07 07:58 50.03212 8.53259 1196 ft 167 kts 252°
2026-05-07 07:58 50.02805 8.51549 1874 ft 175 kts 253°
2026-05-07 07:58 50.02190 8.49778 2274 ft 200 kts 232°
2026-05-07 07:59 50.01053 8.48434 2892 ft 212 kts 207°
2026-05-07 07:59 49.99608 8.47878 3634 ft 217 kts 190°
2026-05-07 07:59 49.98107 8.47543 4390 ft 219 kts 189°
2026-05-07 07:59 49.96594 8.47208 5113 ft 221 kts 189°
2026-05-07 08:00 49.95080 8.46614 5670 ft 232 kts 198°
2026-05-07 08:00 49.93474 8.45765 6049 ft 254 kts 210°
2026-05-07 08:00 49.92147 8.43977 6782 ft 255 kts 239°
2026-05-07 08:00 49.91531 8.41445 7679 ft 251 kts 267°
2026-05-07 08:01 49.91750 8.38758 8373 ft 261 kts 294°
2026-05-07 08:01 49.92858 8.36506 9123 ft 269 kts 320°
2026-05-07 08:01 49.94339 8.34691 10026 ft 273 kts 320°
2026-05-07 08:01 49.95858 8.32840 10487 ft 292 kts 320°
2026-05-07 08:02 49.97514 8.30812 10919 ft 311 kts 321°
2026-05-07 08:02 49.99230 8.28704 11626 ft 318 kts 321°
2026-05-07 08:02 50.00976 8.26552 12397 ft 323 kts 321°
2026-05-07 08:02 50.02749 8.24361 13170 ft 328 kts 321°
2026-05-07 08:03 50.04545 8.22137 13930 ft 332 kts 321°
2026-05-07 08:03 50.06361 8.19881 14619 ft 336 kts 321°
2026-05-07 08:03 50.08197 8.17599 15314 ft 340 kts 321°
2026-05-07 08:03 50.10051 8.15296 16035 ft 342 kts 321°
2026-05-07 08:04 50.11919 8.12977 16740 ft 345 kts 321°
2026-05-07 08:04 50.13809 8.10627 17370 ft 350 kts 321°
2026-05-07 08:04 50.15749 8.08208 18067 ft 354 kts 321°
2026-05-07 08:04 50.17654 8.05829 18658 ft 358 kts 321°
2026-05-07 08:05 50.19612 8.03387 19210 ft 362 kts 321°
2026-05-07 08:05 50.21591 8.00918 19819 ft 365 kts 321°
2026-05-07 08:05 50.23578 7.98434 20461 ft 367 kts 321°
2026-05-07 08:05 50.25580 7.95928 21052 ft 370 kts 321°
2026-05-07 08:06 50.27596 7.93403 21667 ft 373 kts 321°
2026-05-07 08:06 50.29627 7.90854 22248 ft 376 kts 321°
2026-05-07 08:06 50.31675 7.88281 22858 ft 379 kts 321°
2026-05-07 08:06 50.33741 7.85685 23417 ft 383 kts 321°
2026-05-07 08:07 50.35823 7.83064 23950 ft 385 kts 321°
2026-05-07 08:07 50.37919 7.80419 24418 ft 388 kts 321°
2026-05-07 08:07 50.40036 7.77751 24848 ft 393 kts 321°
2026-05-07 08:07 50.42172 7.75055 25307 ft 395 kts 321°
2026-05-07 08:08 50.44313 7.72351 25825 ft 396 kts 321°
2026-05-07 08:08 50.46470 7.69623 26241 ft 400 kts 321°
2026-05-07 08:08 50.48639 7.66874 26728 ft 401 kts 321°
2026-05-07 08:08 50.50809 7.64116 27205 ft 403 kts 321°
2026-05-07 08:09 50.52996 7.61332 27609 ft 406 kts 321°
2026-05-07 08:09 50.55200 7.58522 27984 ft 410 kts 321°
2026-05-07 08:09 50.57420 7.55688 28463 ft 412 kts 321°
2026-05-07 08:09 50.59654 7.52834 28830 ft 416 kts 321°
2026-05-07 08:10 50.61909 7.49952 29233 ft 419 kts 321°
2026-05-07 08:10 50.64181 7.47046 29634 ft 421 kts 321°
2026-05-07 08:10 50.66462 7.44126 30034 ft 424 kts 321°
2026-05-07 08:10 50.68757 7.41173 30350 ft 427 kts 321°
2026-05-07 08:11 50.71066 7.38202 30691 ft 429 kts 321°
2026-05-07 08:11 50.73283 7.35060 31039 ft 431 kts 313°
2026-05-07 08:11 50.75165 7.31366 31343 ft 434 kts 303°
2026-05-07 08:11 50.76658 7.27222 31657 ft 436 kts 297°
2026-05-07 08:12 50.78041 7.22967 32095 ft 435 kts 297°
2026-05-07 08:12 50.79417 7.18724 32531 ft 434 kts 297°
2026-05-07 08:12 50.80760 7.14580 32899 ft 434 kts 297°
2026-05-07 08:12 50.82169 7.10227 33310 ft 434 kts 297°
2026-05-07 08:13 50.83539 7.05996 33681 ft 435 kts 297°
2026-05-07 08:13 50.84919 7.01729 34136 ft 432 kts 297°
2026-05-07 08:13 50.86285 6.97499 34503 ft 432 kts 297°
2026-05-07 08:13 50.87656 6.93253 34762 ft 433 kts 297°
2026-05-07 08:14 50.89025 6.89006 35074 ft 433 kts 296°
2026-05-07 08:14 50.90352 6.84879 35357 ft 433 kts 296°
2026-05-07 08:14 50.91701 6.80674 35624 ft 434 kts 296°
2026-05-07 08:14 50.93065 6.76415 35920 ft 433 kts 296°
2026-05-07 08:15 50.94428 6.72156 36012 ft 431 kts 296°
2026-05-07 08:15 50.97051 6.63909 36023 ft 425 kts 296°
2026-05-07 08:16 50.99608 6.55854 36029 ft 425 kts 296°
2026-05-07 08:16 51.02249 6.47538 36033 ft 425 kts 296°
2026-05-07 08:17 51.04911 6.39139 36025 ft 426 kts 296°
2026-05-07 08:17 51.07394 6.31231 36022 ft 425 kts 296°
2026-05-07 08:18 51.10026 6.22817 36037 ft 425 kts 296°
2026-05-07 08:18 51.12627 6.14471 36036 ft 425 kts 296°
2026-05-07 08:19 51.14689 6.05923 36052 ft 424 kts 284°
2026-05-07 08:19 51.16155 5.96813 36053 ft 425 kts 284°
2026-05-07 08:20 51.17622 5.87692 36054 ft 425 kts 284°
2026-05-07 08:20 51.19535 5.78804 36047 ft 425 kts 293°
2026-05-07 08:21 51.21842 5.70124 36045 ft 425 kts 292°
2026-05-07 08:21 51.24124 5.61431 36044 ft 425 kts 292°
2026-05-07 08:22 51.26402 5.52729 36049 ft 425 kts 292°
2026-05-07 08:22 51.28659 5.44084 36048 ft 425 kts 292°
2026-05-07 08:23 51.30932 5.35379 36049 ft 424 kts 292°
2026-05-07 08:23 51.33190 5.26670 36049 ft 424 kts 292°
2026-05-07 08:24 51.35441 5.17942 36053 ft 424 kts 291°
2026-05-07 08:24 51.37685 5.09216 36059 ft 424 kts 291°
2026-05-07 08:25 51.39927 5.00486 36055 ft 424 kts 291°
2026-05-07 08:25 51.42162 4.91744 36051 ft 424 kts 291°
2026-05-07 08:26 51.45492 4.78618 36060 ft 424 kts 291°
2026-05-07 08:26 51.47708 4.69864 36065 ft 424 kts 291°
2026-05-07 08:27 51.49915 4.61096 36062 ft 424 kts 291°
2026-05-07 08:27 51.52117 4.52324 36059 ft 424 kts 291°
2026-05-07 08:28 51.54307 4.43541 36057 ft 424 kts 291°
2026-05-07 08:28 51.56494 4.34749 36058 ft 424 kts 291°
2026-05-07 08:29 51.58674 4.25946 36055 ft 423 kts 291°
2026-05-07 08:29 51.60841 4.17142 36056 ft 423 kts 290°
2026-05-07 08:30 51.63007 4.08339 36054 ft 423 kts 291°
2026-05-07 08:30 51.65175 3.99518 36065 ft 424 kts 290°
2026-05-07 08:31 51.67319 3.90717 36066 ft 423 kts 290°
2026-05-07 08:31 51.69476 3.81852 36076 ft 423 kts 290°
2026-05-07 08:32 51.71619 3.73016 36074 ft 423 kts 290°
2026-05-07 08:32 51.73746 3.64161 36076 ft 423 kts 290°
2026-05-07 08:33 51.75866 3.55307 36089 ft 423 kts 290°
2026-05-07 08:33 51.77984 3.46448 36084 ft 423 kts 290°
2026-05-07 08:34 51.79739 3.39081 36084 ft 423 kts 290°
2026-05-07 08:34 51.81842 3.30209 36075 ft 423 kts 290°
2026-05-07 08:35 51.83890 3.21303 36073 ft 422 kts 285°
2026-05-07 08:35 51.84561 3.11940 36072 ft 420 kts 266°
2026-05-07 08:36 51.83971 3.02536 36065 ft 421 kts 264°
2026-05-07 08:36 51.83356 2.93133 36066 ft 421 kts 264°
2026-05-07 08:37 51.82734 2.83724 36060 ft 421 kts 264°
2026-05-07 08:37 51.82103 2.74308 36071 ft 421 kts 263°
2026-05-07 08:38 51.81458 2.64894 36073 ft 422 kts 263°
2026-05-07 08:38 51.80806 2.55432 35832 ft 426 kts 263°
2026-05-07 08:39 51.80479 2.50669 35583 ft 427 kts 263°
2026-05-07 08:39 51.80147 2.45898 35334 ft 427 kts 263°
2026-05-07 08:39 51.79812 2.41146 34863 ft 425 kts 263°
2026-05-07 08:39 51.79474 2.36417 34317 ft 423 kts 264°
2026-05-07 08:40 51.79134 2.31704 33727 ft 422 kts 264°
2026-05-07 08:40 51.78795 2.27018 33177 ft 419 kts 263°
2026-05-07 08:40 51.78459 2.22363 32602 ft 416 kts 263°
2026-05-07 08:40 51.78146 2.17741 32031 ft 413 kts 264°
2026-05-07 08:41 51.77871 2.13142 31445 ft 411 kts 265°
2026-05-07 08:41 51.77615 2.08556 30863 ft 409 kts 265°
2026-05-07 08:41 51.77364 2.04000 30308 ft 407 kts 265°
2026-05-07 08:41 51.77111 1.99467 29691 ft 404 kts 265°
2026-05-07 08:42 51.76851 1.94968 29149 ft 400 kts 264°
2026-05-07 08:42 51.76585 1.90521 28608 ft 396 kts 264°
2026-05-07 08:42 51.76315 1.86119 28070 ft 393 kts 264°
2026-05-07 08:42 51.76046 1.81749 27539 ft 390 kts 264°
2026-05-07 08:43 51.75780 1.77411 27013 ft 387 kts 264°
2026-05-07 08:43 51.75515 1.73095 26493 ft 385 kts 264°
2026-05-07 08:43 51.75248 1.68804 25974 ft 384 kts 264°
2026-05-07 08:43 51.74980 1.64589 25480 ft 382 kts 264°
2026-05-07 08:44 51.74705 1.60273 24967 ft 381 kts 264°
2026-05-07 08:44 51.74437 1.56051 24395 ft 386 kts 264°
2026-05-07 08:44 51.74163 1.51742 23814 ft 387 kts 264°
2026-05-07 08:44 51.73888 1.47423 23171 ft 387 kts 264°
2026-05-07 08:45 51.73610 1.43106 22596 ft 386 kts 264°
2026-05-07 08:45 51.73328 1.38805 22003 ft 385 kts 264°
2026-05-07 08:45 51.73045 1.34511 21433 ft 385 kts 264°
2026-05-07 08:45 51.72763 1.30226 20853 ft 384 kts 264°
2026-05-07 08:46 51.72481 1.25948 20281 ft 384 kts 264°
2026-05-07 08:46 51.72198 1.21670 19707 ft 383 kts 264°
2026-05-07 08:46 51.71914 1.17401 19134 ft 383 kts 264°
2026-05-07 08:46 51.71629 1.13139 18617 ft 381 kts 264°
2026-05-07 08:47 51.71342 1.08900 18061 ft 379 kts 264°
2026-05-07 08:47 51.71053 1.04705 17380 ft 374 kts 264°
2026-05-07 08:47 51.70766 1.00577 16813 ft 367 kts 263°
2026-05-07 08:47 51.70486 0.96541 16276 ft 358 kts 264°
2026-05-07 08:48 51.70217 0.92580 15736 ft 354 kts 264°
2026-05-07 08:48 51.69949 0.88643 15174 ft 354 kts 264°
2026-05-07 08:48 51.69674 0.84701 14621 ft 354 kts 263°
2026-05-07 08:48 51.69396 0.80764 14069 ft 353 kts 263°
2026-05-07 08:49 51.69117 0.76831 13475 ft 353 kts 264°
2026-05-07 08:49 51.68838 0.72918 12922 ft 350 kts 263°
2026-05-07 08:49 51.68561 0.69042 12376 ft 347 kts 264°
2026-05-07 08:49 51.68286 0.65188 11834 ft 345 kts 264°
2026-05-07 08:50 51.68014 0.61369 11300 ft 342 kts 264°
2026-05-07 08:50 51.67742 0.57621 11108 ft 330 kts 264°
2026-05-07 08:50 51.67478 0.54032 10972 ft 316 kts 264°
2026-05-07 08:50 51.67227 0.50583 10855 ft 304 kts 264°
2026-05-07 08:51 51.66986 0.47255 10692 ft 295 kts 264°
2026-05-07 08:51 51.66751 0.43983 10283 ft 295 kts 264°
2026-05-07 08:51 51.66516 0.40733 9992 ft 290 kts 264°
2026-05-07 08:51 51.66283 0.37507 9555 ft 290 kts 263°
2026-05-07 08:52 51.66049 0.34292 9174 ft 288 kts 263°
2026-05-07 08:52 51.65814 0.31115 8716 ft 284 kts 262°
2026-05-07 08:52 51.65579 0.27973 8185 ft 281 kts 262°
2026-05-07 08:52 51.65343 0.24861 7579 ft 278 kts 261°
2026-05-07 08:53 51.65110 0.21837 7294 ft 263 kts 261°
2026-05-07 08:53 51.64897 0.19025 7174 ft 244 kts 261°
2026-05-07 08:53 51.64695 0.16337 7079 ft 240 kts 261°
2026-05-07 08:53 51.64503 0.13672 7082 ft 240 kts 262°
2026-05-07 08:54 51.64348 0.10998 7086 ft 240 kts 263°
2026-05-07 08:54 51.64207 0.08320 7087 ft 240 kts 263°
2026-05-07 08:54 51.64067 0.05646 7083 ft 240 kts 263°
2026-05-07 08:54 51.63931 0.03096 7083 ft 240 kts 263°
2026-05-07 08:55 51.63779 0.00320 7084 ft 240 kts 263°
2026-05-07 08:55 51.63631 -0.02352 7088 ft 239 kts 264°
2026-05-07 08:55 51.63511 -0.04525 7085 ft 238 kts 264°
2026-05-07 08:55 51.63362 -0.07207 7083 ft 237 kts 264°
2026-05-07 08:56 51.63213 -0.09835 7041 ft 235 kts 264°
2026-05-07 08:56 51.63062 -0.12460 7012 ft 236 kts 264°
2026-05-07 08:56 51.62910 -0.15083 6990 ft 235 kts 264°
2026-05-07 08:56 51.62766 -0.17662 6965 ft 235 kts 264°
2026-05-07 08:57 51.62626 -0.20183 6941 ft 235 kts 264°
2026-05-07 08:57 51.62477 -0.22802 6915 ft 236 kts 264°
2026-05-07 08:57 51.62328 -0.25414 6891 ft 235 kts 264°
2026-05-07 08:57 51.62177 -0.28033 6884 ft 235 kts 264°
2026-05-07 08:58 51.62022 -0.30650 6883 ft 235 kts 264°
2026-05-07 08:58 51.61868 -0.33275 6884 ft 236 kts 264°
2026-05-07 08:58 51.61713 -0.35893 6884 ft 235 kts 264°
2026-05-07 08:58 51.61559 -0.38508 6888 ft 235 kts 264°
2026-05-07 08:59 51.61405 -0.41126 6883 ft 235 kts 264°
2026-05-07 08:59 51.61254 -0.43724 6869 ft 235 kts 264°
2026-05-07 08:59 51.61100 -0.46319 6742 ft 234 kts 264°
2026-05-07 08:59 51.60944 -0.48924 6618 ft 234 kts 264°
2026-05-07 09:00 51.60788 -0.51528 6493 ft 233 kts 263°
2026-05-07 09:00 51.60633 -0.54070 6359 ft 223 kts 264°
2026-05-07 09:00 51.60485 -0.56506 6228 ft 214 kts 263°
2026-05-07 09:00 51.60343 -0.58842 6109 ft 205 kts 263°
2026-05-07 09:01 51.60205 -0.61079 6016 ft 198 kts 263°
2026-05-07 09:01 51.60067 -0.63253 6008 ft 194 kts 263°
2026-05-07 09:01 51.59931 -0.65414 6007 ft 194 kts 263°
2026-05-07 09:01 51.59674 -0.67525 5923 ft 197 kts 253°
2026-05-07 09:02 51.59267 -0.69626 5653 ft 196 kts 251°
2026-05-07 09:02 51.58843 -0.71710 5397 ft 196 kts 251°
2026-05-07 09:02 51.58409 -0.73783 5137 ft 196 kts 247°
2026-05-07 09:02 51.57761 -0.75692 4862 ft 194 kts 226°
2026-05-07 09:03 51.56639 -0.76859 4569 ft 195 kts 205°
2026-05-07 09:03 51.55365 -0.77643 4248 ft 197 kts 199°
2026-05-07 09:03 51.54033 -0.78241 3938 ft 200 kts 195°
2026-05-07 09:03 51.52681 -0.78791 3660 ft 200 kts 195°
2026-05-07 09:04 51.51333 -0.79329 3404 ft 199 kts 195°
2026-05-07 09:04 51.49989 -0.79854 3145 ft 198 kts 191°
2026-05-07 09:04 51.48667 -0.79597 3012 ft 193 kts 153°
2026-05-07 09:04 51.47769 -0.78079 3045 ft 190 kts 115°
2026-05-07 09:05 51.47617 -0.75989 3024 ft 190 kts 86°
2026-05-07 09:05 51.47645 -0.73914 3004 ft 189 kts 92°
2026-05-07 09:05 51.47639 -0.71771 2932 ft 189 kts 91°
2026-05-07 09:05 51.47645 -0.69668 2728 ft 187 kts 91°
2026-05-07 09:06 51.47656 -0.67593 2486 ft 185 kts 91°
2026-05-07 09:06 51.47667 -0.65548 2232 ft 182 kts 91°
2026-05-07 09:06 51.47678 -0.63556 1995 ft 173 kts 90°
2026-05-07 09:06 51.47688 -0.61686 1763 ft 164 kts 92°
2026-05-07 09:07 51.47697 -0.59877 1525 ft 160 kts 91°
2026-05-07 09:07 51.47705 -0.58174 1323 ft 145 kts 91°
2026-05-07 09:07 51.47713 -0.56618 1126 ft 136 kts 90°
2026-05-07 09:07 51.47719 -0.55132 937 ft 132 kts 92°
2026-05-07 09:08 51.47731 -0.53672 752 ft 130 kts 92°
2026-05-07 09:08 51.47740 -0.52249 556 ft 126 kts 94°
2026-05-07 09:08 51.47744 -0.50843 400 ft 125 kts 93°
2026-05-07 09:08 51.47751 -0.49463 246 ft 124 kts 93°
2026-05-07 09:09 51.47755 -0.48063 102 ft 125 kts 92°
2026-05-07 09:09 51.47757 -0.46854 90 ft 87 kts 90°
2026-05-07 09:09 51.47759 -0.46084 88 ft 59 kts 90°
2026-05-07 09:09 51.47761 -0.45505 85 ft 47 kts 90°
2026-05-07 09:10 51.47762 -0.45031 89 ft 29 kts 90°
2026-05-07 09:10 51.47684 -0.44826 92 ft 16 kts 145°
2026-05-07 09:10 51.47647 -0.44791 90 ft 4 kts 159°
2026-05-07 09:10 51.47612 -0.44773 87 ft 6 kts 146°
2026-05-07 09:11 51.47598 -0.44697 86 ft 8 kts 98°
2026-05-07 09:11 51.47548 -0.44659 86 ft 9 kts 180°
2026-05-07 09:11 51.47498 -0.44592 87 ft 11 kts 122°
2026-05-07 09:11 51.47427 -0.44559 86 ft 10 kts 180°
2026-05-07 09:12 51.47352 -0.44559 86 ft 11 kts 180°
2026-05-07 09:12 51.47279 -0.44558 86 ft 8 kts 180°
2026-05-07 09:12 51.47226 -0.44558 86 ft 8 kts 180°
2026-05-07 09:12 51.47167 -0.44557 86 ft 9 kts 180°
2026-05-07 09:13 51.47100 -0.44556 86 ft 10 kts 180°
2026-05-07 09:13 51.47025 -0.44556 86 ft 11 kts 180°
2026-05-07 09:13 51.46941 -0.44555 86 ft 12 kts 180°
2026-05-07 09:13 51.46881 -0.44555 86 ft 4 kts 179°
2026-05-07 09:14 51.46847 -0.44554 86 ft 5 kts 180°
2026-05-07 09:14 51.46806 -0.44554 86 ft 6 kts 180°
2026-05-07 09:14 51.46763 -0.44572 89 ft 7 kts 220°
2026-05-07 09:14 51.46752 -0.44656 86 ft 9 kts 269°
2026-05-07 09:15 51.46752 -0.44773 86 ft 11 kts 270°
2026-05-07 09:15 51.46751 -0.44906 86 ft 12 kts 270°
2026-05-07 09:15 51.46751 -0.45047 86 ft 13 kts 270°
2026-05-07 09:15 51.46754 -0.45166 91 ft 7 kts 290°
2026-05-07 09:16 51.46797 -0.45181 86 ft 7 kts 360°
2026-05-07 09:16 51.46819 -0.45181 86 ft 2 kts 360°
2026-05-07 09:16 51.46827 -0.45181 86 ft 0 kts 360°